{"data":{"norad_id":68175,"intl_designator":"2026-050J","name":"STARLINK-36886","alt_names":[],"object_type":"PAYLOAD","status":"ACTIVE","operator":null,"country":"US","launch_date":"2026-03-14","launch_site_code":"AFETR","launch_vehicle":null,"mission":null,"orbit_class":"UNKNOWN","rcs_meters":null,"size_class":null,"mass_kg":null,"dimensions":null,"purposes":["comms"],"wikipedia_slug":null,"has_3d_model":false,"image_url":null,"decayed_at":null,"tle_current":{"epoch":"2026-09-19T00:31:15.731040Z","epoch_age_seconds":183869,"freshness":"STALE","line1":"1 68175U 26050J   26262.02170985  .00011766  00000+0  35875-3 0  9991","line2":"2 68175  53.1577  84.4454 0001371  92.5808 267.5352 15.34406481 30346","mean_motion":15.34406481,"eccentricity":0.0001371,"inclination_deg":53.1577,"raan_deg":84.4454,"arg_perigee_deg":92.5808,"mean_anomaly_deg":267.5352,"bstar":0.00035875,"rev_number":3034,"period_min":93.84736168877,"perigee_km":461.7461008211,"apogee_km":463.62185393309,"semimajor_km":6840.8209773771,"source":"CELESTRAK","updated_at":"2026-09-20T09:00:43.800116Z"}}}